Date String (YYYY-MM-DD hh:mm:ss) UTC,Instrument flags,Ambient pressure (hPa),Sample flow (lpm),Bypass flow (lpm),Sample temperature (°C),Ambient temperature (°C),ASC tube jacket temperature (°C),LED temperature (°C),Box temperature (°C),Sample RH (%),Span deviation,Mass concentration (μg/m³),Mass concentration (μg/m³),Mass concentration (μg/m³)
DateTimeUTC,F1_M11,P_M11,Q1_M11,Q2_M11,T1_M11,T2_M11,T3_M11,T4_M11,T5_M11,U1_M11,ZSPAN_M11,X2_M11,X0_M11,X1_M11
2022-08-02 18:00:00,,0825.9,5.01,0.00,29.3,27.5,00.0,38.0,31.1,24.9,0000.0,0004.81,0007.35,0004.58
2022-08-02 18:01:00,,0825.9,4.99,0.00,29.3,27.7,00.0,38.0,31.2,25.1,0000.0,0004.85,0007.99,0004.60
2022-08-02 18:02:00,,0825.9,5.00,0.00,29.4,27.9,00.0,38.1,31.3,26.8,0000.0,0004.85,0008.21,0004.59
2022-08-02 18:03:00,,0825.9,5.01,0.00,29.4,28.1,00.0,38.1,31.3,26.5,0000.0,0004.86,0009.30,0004.59
2022-08-02 18:04:00,,0825.9,4.99,0.00,29.4,27.9,00.0,38.1,31.3,25.4,0000.0,0004.87,0009.58,0004.56
2022-08-02 18:05:00,,0825.8,5.01,0.00,29.4,27.4,00.0,38.0,31.2,25.9,0000.0,0004.84,0009.62,0004.52
2022-08-02 18:06:00,,0825.8,4.99,0.00,29.4,27.3,00.0,38.0,31.2,26.6,0000.0,0004.80,0009.67,0004.47
2022-08-02 18:07:00,,0825.8,5.00,0.00,29.3,27.4,00.0,38.0,31.1,26.2,0000.0,0004.73,0009.80,0004.40
2022-08-02 18:08:00,,0825.7,4.99,0.00,29.3,27.5,00.0,38.0,31.1,26.4,0000.0,0004.69,0009.70,0004.36
2022-08-02 18:09:00,,0825.9,5.00,0.00,29.3,27.7,00.0,38.0,31.1,26.1,0000.0,0004.66,0009.59,0004.32
2022-08-02 18:10:00,,0825.7,5.00,0.00,29.3,27.9,00.0,38.1,31.2,25.8,0000.0,0004.60,0009.51,0004.27
2022-08-02 18:11:00,,0826.1,5.01,0.00,29.4,28.0,00.0,38.1,31.3,25.7,0000.0,0004.53,0009.14,0004.24
2022-08-02 18:12:00,,0826.0,5.00,0.00,29.4,27.6,00.0,38.0,31.2,25.6,0000.0,0004.49,0008.60,0004.22
2022-08-02 18:13:00,,0825.7,4.99,0.00,29.3,27.2,00.0,38.0,31.1,25.4,0000.0,0004.47,0008.35,0004.21
2022-08-02 18:14:00,,0825.7,5.01,0.00,29.3,27.3,00.0,38.0,31.1,26.0,0000.0,0004.46,0007.21,0004.21
2022-08-02 18:15:00,,0825.6,4.99,0.00,29.3,27.4,00.0,38.0,31.0,26.0,0000.0,0004.44,0006.74,0004.22
2022-08-02 18:16:00,,0825.7,5.00,0.00,29.3,27.6,00.0,38.0,31.1,25.8,0000.0,0004.47,0006.76,0004.25
2022-08-02 18:17:00,,0825.7,5.01,0.00,29.3,27.8,00.0,38.0,31.2,25.8,0000.0,0004.51,0007.85,0004.28
2022-08-02 18:18:00,,0825.7,5.00,0.00,29.3,28.0,00.0,38.0,31.2,26.1,0000.0,0004.55,0007.81,0004.32
2022-08-02 18:19:00,,0825.7,5.01,0.00,29.3,27.8,00.0,38.0,31.2,26.0,0000.0,0004.58,0007.85,0004.35
2022-08-02 18:20:00,,0825.6,5.00,0.00,29.3,27.3,00.0,38.0,31.1,25.0,0000.0,0004.56,0008.11,0004.35
2022-08-02 18:21:00,,0825.6,4.99,0.00,29.3,27.2,00.0,38.0,31.1,24.7,0000.0,0004.57,0008.20,0004.36
2022-08-02 18:22:00,,0825.6,4.99,0.00,29.2,27.3,00.0,38.0,31.0,25.0,0000.0,0004.58,0008.34,0004.35
2022-08-02 18:23:00,,0825.6,5.01,0.00,29.2,27.4,00.0,38.0,31.1,25.8,0000.0,0004.60,0008.38,0004.37
2022-08-02 18:24:00,,0825.6,5.00,0.00,29.2,27.7,00.0,38.0,31.1,25.4,0000.0,0004.63,0008.39,0004.42
2022-08-02 18:25:00,,0825.6,4.99,0.00,29.3,27.9,00.0,38.0,31.2,25.3,0000.0,0004.70,0008.42,0004.47
2022-08-02 18:26:00,,0825.6,5.00,0.00,29.3,28.1,00.0,38.0,31.3,24.9,0000.0,0004.74,0008.53,0004.50
2022-08-02 18:27:00,,0825.6,5.00,0.00,29.3,27.9,00.0,38.0,31.2,25.1,0000.0,0004.74,0008.53,0004.49
2022-08-02 18:28:00,,0825.6,5.01,0.00,29.3,27.3,00.0,38.0,31.1,25.3,0000.0,0004.71,0007.82,0004.46
2022-08-02 18:29:00,,0825.6,4.99,0.00,29.3,27.2,00.0,38.0,31.1,25.0,0000.0,0004.66,0007.53,0004.43
2022-08-02 18:30:00,,0825.6,4.99,0.00,29.3,27.3,00.0,38.0,31.1,25.2,0000.0,0004.62,0007.47,0004.39
2022-08-02 18:31:00,,0825.6,5.01,0.00,29.2,27.5,00.0,38.0,31.0,24.6,0000.0,0004.64,0007.10,0004.39
2022-08-02 18:32:00,,0825.6,5.00,0.00,29.2,27.7,00.0,38.0,31.1,24.7,0000.0,0004.69,0007.12,0004.41
2022-08-02 18:33:00,,0825.6,5.00,0.00,29.3,27.9,00.0,38.0,31.2,24.9,0000.0,0004.71,0007.51,0004.44
2022-08-02 18:34:00,,0825.6,5.00,0.00,29.3,28.1,00.0,38.0,31.3,24.9,0000.0,0004.72,0007.71,0004.46
2022-08-02 18:35:00,,0825.6,5.00,0.00,29.3,27.8,00.0,38.0,31.3,24.8,0000.0,0004.70,0007.72,0004.43
2022-08-02 18:36:00,,0825.6,5.00,0.00,29.3,27.3,00.0,38.0,31.1,24.0,0000.0,0004.62,0007.63,0004.37
2022-08-02 18:37:00,,0825.6,5.00,0.00,29.3,27.2,00.0,38.0,31.1,22.4,0000.0,0004.45,0007.42,0004.22
2022-08-02 18:38:00,,0825.6,5.02,0.00,29.2,27.3,00.0,38.0,31.0,22.3,0000.0,0004.25,0007.12,0004.04
2022-08-02 18:39:00,,0825.6,4.99,0.00,29.2,27.4,00.0,38.0,31.0,22.7,0000.0,0004.06,0006.66,0003.87
2022-08-02 18:40:00,,0825.6,4.99,0.00,29.2,27.6,00.0,38.0,31.0,22.4,0000.0,0003.89,0006.34,0003.70
2022-08-02 18:41:00,,0825.6,5.00,0.00,29.3,27.8,00.0,38.0,31.1,22.6,0000.0,0003.71,0006.03,0003.53
2022-08-02 18:42:00,,0825.6,5.00,0.00,29.3,27.9,00.0,38.0,31.2,22.8,0000.0,0003.56,0005.91,0003.37
2022-08-02 18:43:00,,0825.5,5.00,0.00,29.3,27.4,00.0,37.9,31.1,22.5,0000.0,0003.38,0005.75,0003.20
2022-08-02 18:44:00,,0825.5,5.01,0.00,29.2,27.0,00.0,37.9,31.0,21.9,0000.0,0003.21,0004.67,0002.93
2022-08-02 18:45:00,,0825.5,4.99,0.00,29.2,27.1,00.0,37.9,31.0,22.5,0000.0,0002.96,0004.24,0002.55
2022-08-02 18:46:00,,0825.6,5.00,0.00,29.2,27.2,00.0,37.9,30.9,22.0,0000.0,0002.65,0003.99,0002.20
2022-08-02 18:47:00,,0825.6,5.01,0.00,29.2,27.4,00.0,37.9,30.9,21.9,0000.0,0002.35,0003.64,0001.90
2022-08-02 18:48:00,,0825.6,5.00,0.00,29.2,27.6,00.0,37.9,31.0,22.4,0000.0,0002.26,0003.52,0001.80
2022-08-02 18:49:00,,0825.5,4.99,0.00,29.2,27.9,00.0,37.9,31.1,22.8,0000.0,0002.28,0003.53,0001.79
2022-08-02 18:50:00,,0825.6,5.00,0.00,29.3,27.9,00.0,37.9,31.1,22.7,0000.0,0002.32,0003.65,0001.78
2022-08-02 18:51:00,,0825.6,5.01,0.00,29.2,27.4,00.0,37.9,31.0,22.9,0000.0,0002.35,0003.78,0001.78
2022-08-02 18:52:00,,0825.5,5.00,0.00,29.2,27.1,00.0,37.9,31.0,23.5,0000.0,0002.33,0003.77,0001.76
2022-08-02 18:53:00,,0825.5,4.99,0.00,29.2,27.1,00.0,37.9,31.0,23.6,0000.0,0002.26,0003.59,0001.72
2022-08-02 18:54:00,,0825.5,5.00,0.00,29.1,27.2,00.0,37.9,30.9,23.5,0000.0,0002.14,0003.20,0001.66
2022-08-02 18:55:00,,0825.6,5.00,0.00,29.1,27.4,00.0,37.9,30.9,23.8,0000.0,0002.16,0003.20,0001.67
2022-08-02 18:56:00,,0825.5,5.00,0.00,29.2,27.7,00.0,37.9,31.0,23.4,0000.0,0002.10,0003.00,0001.67
2022-08-02 18:57:00,,0825.6,5.00,0.00,29.2,27.9,00.0,37.9,31.1,22.4,0000.0,0002.07,0002.94,0001.66
2022-08-02 18:58:00,,0825.5,5.01,0.00,29.2,28.1,00.0,37.9,31.2,22.3,0000.0,0002.07,0002.99,0001.63
2022-08-02 18:59:00,,0825.5,5.00,0.00,29.3,27.8,00.0,37.9,31.1,22.5,0000.0,0002.07,0003.04,0001.62
